• In Hungary
  • List of Countries
  • For 7 days
  • Water Temperature
  • Satellite Maps
  • Weather Map
  • News
  • Weather Widgets
  • user-avatar
    Login

    Hourly Weather Krasnaya Raevka

    Today, 27 May, Sunday

    Time Temperature Precipitation Wind Pressure Humidity
    00:00 +10°C° 0 mm 2 mps 755 mmHg 85%
    01:00 +10°C° 0 mm 2 mps 755 mmHg 87%
    02:00 +9°C° 0 mm 2 mps 755 mmHg 91%
    03:00 +9°C° 0 mm 2 mps 755 mmHg 90%
    04:00 +9°C° 0 mm 2 mps 755 mmHg 89%
    05:00 +9°C° 0 mm 2 mps 755 mmHg 89%
    06:00 +12°C° 0 mm 2 mps 755 mmHg 83%
    07:00 +14°C° 0 mm 2 mps 754 mmHg 78%
    08:00 +16°C° 0 mm 2 mps 754 mmHg 72%
    09:00 +17°C° 0 mm 2 mps 754 mmHg 67%
    10:00 +19°C° 0 mm 2 mps 754 mmHg 62%
    11:00 +20°C° 0 mm 2 mps 754 mmHg 57%
    12:00 +20°C° 0 mm 2 mps 754 mmHg 56%
    13:00 +21°C° 0 mm 2 mps 753 mmHg 55%
    14:00 +21°C° 0 mm 2 mps 753 mmHg 54%
    15:00 +21°C° 0 mm 2 mps 753 mmHg 56%
    16:00 +21°C° 0 mm 2 mps 752 mmHg 58%
    17:00 +21°C° 0 mm 2 mps 752 mmHg 60%
    18:00 +19°C° 0 mm 2 mps 752 mmHg 66%
    19:00 +19°C° 0 mm 1 mps 752 mmHg 72%
    20:00 +16°C° 0 mm 1 mps 752 mmHg 78%
    21:00 +15°C° 0 mm 1 mps 752 mmHg 79%
    22:00 +15°C° 0 mm 1 mps 752 mmHg 80%
    23:00 +14°C° 0 mm 1 mps 752 mmHg 80%

    Tomorrow, 28 May, Monday

    Time Temperature Precipitation Wind Pressure Humidity
    00:00 +14°C° 0 mm 2 mps 752 mmHg 81%
    01:00 +14°C° 0 mm 2 mps 752 mmHg 82%
    02:00 +13°C° 0 mm 2 mps 752 mmHg 82%
    03:00 +13°C° 0 mm 2 mps 752 mmHg 84%
    04:00 +14°C° 0 mm 2 mps 752 mmHg 85%
    05:00 +14°C° 0 mm 2 mps 752 mmHg 86%
    06:00 +15°C° 0 mm 2 mps 753 mmHg 82%
    07:00 +17°C° 0 mm 2 mps 753 mmHg 79%
    08:00 +19°C° 0 mm 2 mps 753 mmHg 75%
    09:00 +20°C° 0 mm 3 mps 754 mmHg 73%
    10:00 +21°C° 0 mm 3 mps 754 mmHg 70%
    11:00 +22°C° 0 mm 4 mps 754 mmHg 67%
    12:00 +22°C° 0.1 mm 4 mps 754 mmHg 65%
    13:00 +23°C° 0.1 mm 4 mps 754 mmHg 62%
    14:00 +23°C° 0.1 mm 4 mps 754 mmHg 59%
    15:00 +22°C° 0 mm 4 mps 754 mmHg 60%
    16:00 +22°C° 0 mm 4 mps 754 mmHg 62%
    17:00 +22°C° 0 mm 4 mps 754 mmHg 63%
    18:00 +19°C° 0 mm 3 mps 754 mmHg 66%
    19:00 +17°C° 0 mm 3 mps 754 mmHg 69%
    20:00 +14°C° 0 mm 3 mps 754 mmHg 73%
    21:00 +13°C° 0 mm 3 mps 755 mmHg 72%
    22:00 +12°C° 0 mm 3 mps 755 mmHg 71%
    23:00 +11°C° 0 mm 3 mps 755 mmHg 69%

    Day after tomorrow, 29 May, Tuesday

    Time Temperature Precipitation Wind Pressure Humidity
    00:00 +10°C° 0 mm 3 mps 755 mmHg 71%
    01:00 +10°C° 0 mm 3 mps 756 mmHg 72%
    02:00 +9°C° 0 mm 3 mps 756 mmHg 74%
    03:00 +9°C° 0 mm 3 mps 756 mmHg 76%
    04:00 +9°C° 0 mm 2 mps 755 mmHg 78%
    05:00 +9°C° 0 mm 2 mps 755 mmHg 80%
    06:00 +12°C° 0 mm 2 mps 755 mmHg 76%
    07:00 +13°C° 0 mm 3 mps 755 mmHg 72%
    08:00 +16°C° 0 mm 3 mps 755 mmHg 67%
    09:00 +17°C° 0 mm 3 mps 755 mmHg 63%
    10:00 +19°C° 0 mm 2 mps 755 mmHg 58%
    11:00 +20°C° 0 mm 2 mps 754 mmHg 53%
    12:00 +21°C° 0 mm 2 mps 754 mmHg 52%
    13:00 +21°C° 0 mm 2 mps 753 mmHg 51%
    14:00 +23°C° 0 mm 2 mps 753 mmHg 50%
    15:00 +23°C° 0 mm 2 mps 752 mmHg 53%
    16:00 +23°C° 0 mm 2 mps 752 mmHg 56%
    17:00 +23°C° 0 mm 2 mps 751 mmHg 59%
    18:00 +20°C° 0 mm 2 mps 751 mmHg 64%
    19:00 +18°C° 0 mm 2 mps 751 mmHg 70%
    20:00 +16°C° 0 mm 2 mps 750 mmHg 75%
    21:00 +16°C° 0 mm 2 mps 750 mmHg 76%
    22:00 +15°C° 0 mm 2 mps 750 mmHg 76%
    23:00 +14°C° 0 mm 2 mps 750 mmHg 77%

    30 May, Wednesday

    Time Temperature Precipitation Wind Pressure Humidity
    00:00 +14°C° 0 mm 2 mps 749 mmHg 78%
    01:00 +12°C° 0 mm 3 mps 749 mmHg 79%
    02:00 +12°C° 0 mm 3 mps 749 mmHg 80%
    03:00 +12°C° 0 mm 3 mps 749 mmHg 82%
    04:00 +12°C° 0 mm 3 mps 748 mmHg 83%
    05:00 +13°C° 0 mm 3 mps 748 mmHg 85%
    06:00 +16°C° 0 mm 3 mps 747 mmHg 82%
    07:00 +18°C° 0 mm 3 mps 747 mmHg 80%
    08:00 +19°C° 0 mm 3 mps 747 mmHg 77%
    09:00 +21°C° 0.3 mm 3 mps 746 mmHg 74%
    10:00 +22°C° 0.3 mm 4 mps 746 mmHg 71%
    11:00 +25°C° 0.3 mm 4 mps 746 mmHg 68%
    12:00 +25°C° 0.6 mm 4 mps 745 mmHg 68%
    13:00 +26°C° 0.6 mm 4 mps 745 mmHg 67%
    14:00 +26°C° 0.6 mm 5 mps 744 mmHg 67%
    15:00 +26°C° 0.3 mm 4 mps 744 mmHg 69%
    16:00 +25°C° 0.3 mm 4 mps 743 mmHg 71%
    17:00 +25°C° 0.3 mm 4 mps 743 mmHg 73%
    18:00 +23°C° 0.3 mm 4 mps 742 mmHg 78%
    19:00 +21°C° 0.3 mm 3 mps 742 mmHg 83%
    20:00 +20°C° 0.3 mm 3 mps 742 mmHg 87%
    21:00 +19°C° 0 mm 3 mps 741 mmHg 88%
    22:00 +18°C° 0 mm 3 mps 741 mmHg 90%
    23:00 +18°C° 0 mm 3 mps 741 mmHg 91%

    31 May, Thursday

    Time Temperature Precipitation Wind Pressure Humidity
    00:00 +17°C° 0.4 mm 3 mps 741 mmHg 92%
    01:00 +17°C° 0.4 mm 2 mps 740 mmHg 93%
    02:00 +16°C° 0.4 mm 2 mps 740 mmHg 94%
    03:00 +16°C° 0.2 mm 2 mps 740 mmHg 94%
    04:00 +16°C° 0.2 mm 2 mps 740 mmHg 94%
    05:00 +16°C° 0.2 mm 2 mps 740 mmHg 95%
    06:00 +17°C° 0.4 mm 3 mps 740 mmHg 91%
    07:00 +17°C° 0.4 mm 4 mps 740 mmHg 87%
    08:00 +17°C° 0.4 mm 5 mps 740 mmHg 83%
    09:00 +17°C° 0.1 mm 5 mps 740 mmHg 76%
    10:00 +19°C° 0.1 mm 5 mps 740 mmHg 70%
    11:00 +19°C° 0.1 mm 6 mps 740 mmHg 63%
    12:00 +19°C° 0 mm 6 mps 740 mmHg 62%
    13:00 +20°C° 0 mm 5 mps 740 mmHg 61%
    14:00 +20°C° 0 mm 5 mps 740 mmHg 60%
    15:00 +19°C° 0 mm 5 mps 740 mmHg 63%
    16:00 +19°C° 0 mm 5 mps 740 mmHg 65%
    17:00 +17°C° 0 mm 5 mps 740 mmHg 68%
    18:00 +16°C° 0 mm 5 mps 741 mmHg 67%
    19:00 +15°C° 0 mm 5 mps 741 mmHg 65%
    20:00 +14°C° 0 mm 5 mps 741 mmHg 64%
    21:00 +14°C° 0 mm 6 mps 741 mmHg 62%
    22:00 +13°C° 0 mm 6 mps 742 mmHg 59%
    23:00 +12°C° 0 mm 7 mps 742 mmHg 57%

    1 June, Friday

    Time Temperature Precipitation Wind Pressure Humidity
    00:00 +11°C° 0 mm 7 mps 742 mmHg 57%
    01:00 +10°C° 0 mm 7 mps 742 mmHg 56%
    02:00 +9°C° 0 mm 7 mps 742 mmHg 56%
    03:00 +8°C° 0 mm 7 mps 742 mmHg 57%
    04:00 +8°C° 0 mm 7 mps 742 mmHg 59%
    05:00 +6°C° 0 mm 7 mps 742 mmHg 61%
    06:00 +6°C° 0 mm 7 mps 743 mmHg 62%
    07:00 +8°C° 0 mm 7 mps 743 mmHg 64%
    08:00 +7°C° 0 mm 8 mps 743 mmHg 65%
    09:00 +9°C° 0 mm 8 mps 743 mmHg 64%
    10:00 +9°C° 0 mm 8 mps 744 mmHg 63%
    11:00 +10°C° 0 mm 9 mps 744 mmHg 62%
    12:00 +10°C° 0.1 mm 9 mps 744 mmHg 62%
    13:00 +11°C° 0.1 mm 8 mps 744 mmHg 62%
    14:00 +11°C° 0.1 mm 8 mps 743 mmHg 63%
    15:00 +11°C° 0.2 mm 8 mps 743 mmHg 64%
    16:00 +11°C° 0.2 mm 7 mps 743 mmHg 66%
    17:00 +11°C° 0.2 mm 6 mps 743 mmHg 67%
    18:00 +10°C° 0 mm 6 mps 744 mmHg 66%
    19:00 +10°C° 0 mm 6 mps 744 mmHg 65%
    20:00 +9°C° 0 mm 6 mps 744 mmHg 63%
    21:00 +9°C° 0 mm 7 mps 744 mmHg 62%
    22:00 +8°C° 0 mm 7 mps 744 mmHg 61%
    23:00 +7°C° 0 mm 8 mps 744 mmHg 59%
    Show more